Weather in Sovetskoye

Russia / Kaliningrad Oblast     54°50′55″N   21°37′20″E
temp.,
°C
wind,
m/s
gust,
m/s
humid.,
%
clouds,
%
prec.,
mm/h
press.,
hPa
HPBL,
m
18 may, tue
tue1823:00+11ne23838 0.0 100449
02:00+9e228895 0.0 100421
05:00+10ne2291100 0.0 100419
08:00+15ne1278100 0.0 1004334
11:00+17nne3473100 1.0 1005910
14:00+17nnw3465100 1.9 10041042
17:00+17n346818 0.7 1005832
20:00+12wnw2488100 0.9 100598
19 may, wed
wed1923:00+10wnw258799 0.0 1006155
02:00+7wnw389779 0.0 1006190
05:00+7w3796100 0.0 1006168
08:00+12wnw477486 0.0 1007541
11:00+15wnw576599 0.1 10071229
14:00+15nw6859100 0.4 10081088
17:00+13wnw6971100 0.1 1009829
20:00+10wnw398732 0.1 1010436
20 may, thu
thu2023:00+7w269724 0.0 1011137
02:00+6wsw37966 0.0 1012135
05:00+5wsw39973 0.0 1012206
08:00+12wnw47714 0.0 1013549
11:00+15wnw56550 0.0 10131337
14:00+16nw575439 0.0 10141732
17:00+14wnw68618 0.0 10141304
20:00+9wnw38805 0.0 1016490
21 may, fri
fri2123:00+5sw38864 0.0 1016151
02:00+4sw39960 0.0 1016190
05:00+4sw310900 0.0 1016219
08:00+10sw4871100 0.0 1017683
11:00+14sw575884 0.0 10161587
14:00+15sw486399 0.4 10151482
17:00+15ssw4772100 0.9 1013889
20:00+13s41274100 1.1 1012415
22 may, sat
sat2223:00+12sse51372100 0.0 1010424
02:00+13s71468100 0.3 10081071
05:00+11ssw61395100 1.1 1008788
08:00+13ssw4993100 1.5 1009753
11:00+15s488582 0.4 1009683
14:00+17s41079100 2.3 10071030
17:00+16sse51284100 2.6 1005444
20:00+14s41290100 7.4 1004314